Flag for Germany Weather past 2 weeks in Speyer, Rhineland-Palatinate, Germany

Now
52 °F

Scattered showers. Scattered clouds.


Feels Like: 47 °F
Forecast: 37 / 59 °F
Wind: 13 mph from East

Location: Baden Wurttemberg - Neuostheim


UV Index: 0 (Low)

Visibility: N/A


Pressure: 29.92 "Hg

Humidity: 47%

Dew point: 32 °F

Location of SpeyerLocation

Historic Weather in Speyer

°F

Speyer temperature yesterday

Maximum temperature yesterday: 63 °F (at 4:20 PM)
Minimum temperature yesterday: 34 °F (at 6:50 AM)
Average temperature yesterday: 53 °F

Past Weeks' High & Low Weather Summary

 TemperatureHumidityPressure
High75 °F (Apr 4, 4:20 PM)100% (Apr 5, 7:20 AM)30.42 "Hg (Apr 5, 7:20 AM)
Low34 °F (Apr 17, 6:50 AM)23% (Apr 17, 6:50 PM)29.62 "Hg (Apr 3, 5:50 PM)
Average57 °F54%30.07 "Hg
* Reported Apr 3 3:20 PM — Apr 18 3:20 PM, Speyer, Weather by CustomWeather, © 2014

Note: Actual official high and low records may vary slightly from our data, if they occured in-between our weather recording intervals... More about our weather records

Advertising

Historic Weather Conditions — Data for Previous 24 hours

 ConditionsComfort  
Time TempWeatherWind HumidityBarometerVisibility
3:20 PM
Apr 18
52 °FSunny.14 mph47%29.89 "Hg10 mi
2:50 PM52 °FScattered showers. Broken clouds.15 mph47%29.89 "HgN/A
2:20 PM54 °FPassing clouds.10 mph41%29.89 "HgN/A
1:50 PM54 °FPassing clouds.14 mph41%29.89 "HgN/A
1:20 PM55 °FPassing clouds.12 mph41%29.89 "HgN/A
12:50 PM55 °FScattered clouds.14 mph41%29.89 "HgN/A
12:20 PM52 °FBroken clouds.10 mph50%29.89 "HgN/A
11:50 AM52 °FBroken clouds.10 mph54%29.89 "HgN/A
11:20 AM50 °FPartly sunny.10 mph58%29.89 "HgN/A
10:50 AM50 °FPartly sunny.12 mph58%29.89 "HgN/A
10:20 AM48 °FBroken clouds.8 mph76%29.89 "HgN/A
9:50 AM48 °FScattered showers. Broken clouds.2 mph82%29.89 "HgN/A
9:20 AM46 °FScattered showers. Broken clouds.5 mph82%29.89 "HgN/A
8:50 AM46 °FLight rain. Partly sunny.7 mph82%29.89 "HgN/A
8:20 AM50 °FOvercast.8 mph71%29.89 "HgN/A
7:50 AM50 °FBroken clouds.13 mph76%29.86 "HgN/A
7:20 AM50 °FPassing clouds.7 mph71%29.86 "HgN/A
10:50 PM
Apr 17
48 °FClear.2 mph50%29.98 "Hg10 mi
10:20 PM48 °FClear.No wind50%29.98 "Hg10 mi
9:50 PM48 °FClear.2 mph54%29.98 "Hg10 mi
9:20 PM52 °FSunny.2 mph44%29.98 "Hg10 mi
8:50 PM55 °FSunny.3 mph36%29.98 "Hg10 mi
8:20 PM59 °FSunny.3 mph27%30.01 "Hg10 mi
7:50 PM61 °FRefreshingly cool.5 mph25%30.01 "HgN/A
6:50 PM61 °FRefreshingly cool.7 mph23%30.04 "HgN/A
6:20 PM63 °FSunny.5 mph24%30.04 "Hg10 mi
5:50 PM63 °FSunny.3 mph24%30.04 "Hg10 mi
5:20 PM63 °FSunny.3 mph25%30.07 "Hg10 mi
4:50 PM63 °FPassing clouds.7 mph25%30.07 "HgN/A
4:20 PM63 °FSunny.5 mph25%30.09 "Hg10 mi
Weather by CustomWeather, © 2014

See weather overview